Location: North Evanston
(42.0634°N, 87.6976°W)
Time: 14:40:22
(UTC+00:00)

Vanguard 2 Rocket - Pass Details

Date: 17 May 2026
Orbit: 553 x 3286 km, 32.9° (Epoch: 6 June)

Event Time Altitude Azimuth Distance (km) Brightness Sun altitude
Rises 13:13:39 0° 180° (S) 4,274 10.3 28.7°
Reaches altitude 10° 13:18:14 10° 156° (SSE) 3,830 10.5 29.6°
Maximum altitude 13:22:58 14° 128° (SE) 4,018 11.1 30.4°
Drops below altitude 10° 13:28:45 10° 102° (ESE) 4,913 12.1 31.5°
Sets 13:36:25 0° 83° (E) 6,542 12.3 32.9°
